Welcome to the New NWS' Forecast!
Most changes are behind the scenes, but click here for differences you might notice.

Regional Weather Roundup (RWR)

Issued by National Weather Service (NWS)

                            
733 
ASUS46 KSEW 141910
RWRWA 

WASHINGTON REGIONAL WEATHER ROUNDUP
NATIONAL WEATHER SERVICE SEATTLE WA
1200 PM PDT SAT JUL 14 2018

NOTE:"FAIR" INDICATES FEW OR NO CLOUDS BELOW 12,000 FEET WITH NO 
SIGNIFICANT WEATHER AND/OR OBSTRUCTIONS TO VISIBILITY.

WAZ507-509-555>559-142000-
SEATTLE, TACOMA, EVERETT, AND VICINITY
  
CITY           SKY/WX    TMP DP  RH WIND       PRES   REMARKS
EVERETT        SUNNY     72  54  53 VRB7      30.16S                  
BOEING FIELD   SUNNY     74  50  42 NW10      30.12F                  
RENTON         SUNNY     76  53  44 NW10      30.11F                  
SEATAC AIRPORT SUNNY     76  52  43 N13       30.13F                  
JBLM-MCCHORD   SUNNY     76  56  49 N10       30.13F                  
PUYALLUP       FAIR      77  55  47 CALM      30.13F                  
BREMERTON      SUNNY     76  53  44 VRB3      30.14S                  
JBLM-FT LEWIS  SUNNY     75  56  50 NW6       30.12F                  
TACOMA NARROWS SUNNY     72  50  45 N10       30.13F                  
$$
 
WAZ001-503-506-510-514-515-142000-
NORTH INTERIOR
  
CITY           SKY/WX    TMP DP  RH WIND       PRES   REMARKS
BELLINGHAM     SUNNY     75  56  51 W8        30.14F                  
FRIDAY HARBOR  SUNNY     77  50  38 MISG      30.17F                  
EASTSOUND      SUNNY     64  57  77 VRB6G13   30.16F                  
PORT ANGELES   SUNNY     72  49  44 VRB6      30.18F                  
EDIZ HOOK      FAIR      68  50  52 CALM      30.17F                  
PORT TOWNSEND  FAIR      72  54  53 NW8G16    30.16S                  
NAS WHIDBEY    SUNNY     66  52  60 W8        30.19F                  
ARLINGTON      SUNNY     76  58  53 W8        30.14S                  
BURLINGTON     SUNNY     72  57  60 NW9G16    30.14F                  
$$
 
WAZ020-022-039-040-504-511-512-142000-
SOUTHWEST INTERIOR
  
CITY           SKY/WX    TMP DP  RH WIND       PRES   REMARKS
SHELTON        SUNNY     77  53  43 VRB6      30.11F                  
OLYMPIA        SUNNY     75  50  41 N5        30.13F                  
CHEHALIS       FAIR      79  55  44 VRB3G14   30.12F                  
KELSO          SUNNY     75  56  51 W6        30.11F                  
VANCOUVER      SUNNY     76  52  43 VRB7      30.09F                  
SCAPPOOSE, OR  SUNNY     77  54  44 MISG      30.09F                  
PORTLAND, OR   MOSUNNY   76  52  43 W10       30.09F                  
$$
 
WAZ021-516-517-142000-
WASHINGTON COAST
  
CITY           SKY/WX    TMP DP  RH WIND       PRES   REMARKS
FORKS          SUNNY     74  54  49 VRB7      30.15S                  
HOQUIAM        SUNNY     67  60  78 SW10      30.14F HAZE             
ASTORIA, OR    SUNNY     68  59  73 N9        30.12F                  
$$
 
WAZ019-023-024-040-567>569-142000-
CASCADE MOUNTAINS AND COLUMBIA GORGE
  
CITY           SKY/WX    TMP DP  RH WIND       PRES   REMARKS
STAMPEDE PASS  SUNNY     77  50  38 VRB3      30.23F                  
TROUTDALE, OR  SUNNY     76  55  48 CALM      30.08F                  
HOOD RIVER, OR CLEAR     82  48  30 CALM      30.07F                  
THE DALLES, OR SUNNY     89  50  26 VRB3      30.04F                  
$$

WAZ026-027-041>044-520-521-142000-
EAST SLOPES
  
CITY           SKY/WX    TMP DP  RH WIND       PRES   REMARKS
OMAK           SUNNY     84  31  14 N20G26    30.16S                  
WENATCHEE      SUNNY     82  40  22 VRB6      30.11F                  
ELLENSBURG     SUNNY     87  45  23 VRB3      30.13F                  
YAKIMA         SUNNY     87  40  19 CALM      30.10F                  
SUNNYSIDE ARPT CLEAR     87  50  27 NW9       30.08S                  
YAKIMA TC        N/A     87  35  15 NE10      30.09F                  
$$

WAZ028-034-035-142000-
COLUMBIA BASIN
  
CITY           SKY/WX    TMP DP  RH WIND       PRES   REMARKS
EPHRATA        SUNNY     86  19   8 N21G28    30.11F                  
MOSES LAKE     SUNNY     88  29  12 N20G25    30.11S                  
PASCO          SUNNY     89  51  27 N14       30.06F                  
RICHLAND ARPT  CLEAR     91  43  18 N10       30.07S                  
HERMISTON, OR  SUNNY     90  49  24 VRB3      30.06F                  
$$

WAZ036>038-142000-
NORTHEAST WASHINGTON
  
CITY           SKY/WX    TMP DP  RH WIND       PRES   REMARKS
SPOKANE GEIGER MOSUNNY   83  34  17 N6        30.11S                  
SPOKANE FELTS  SUNNY     84  40  21 W7        30.09R                  
FAIRCHILD AFB  SUNNY     81  32  17 NE5       30.12S                  
COEURDALENE,ID SUNNY     84  47  27 W6        30.10S                  
DEER PARK      SUNNY     83  39  21 W9        30.10S                  
$$

WAZ029>033-142000-
SOUTHEAST WASHINGTON
  
CITY           SKY/WX    TMP DP  RH WIND       PRES   REMARKS
PULLMAN        SUNNY     80  48  32 VRB6      30.15S                  
LEWISTON, ID   SUNNY     90  45  21 NW10      30.06F                  
WALLA WALLA    SUNNY     86  45  23 SW9       30.08F                  
PENDLETON, OR  SUNNY     89  45  21 NW9       30.09F                  
$$